Home > Weather > Indianapolis > Past weeks

Flag for U.S.A. Weather for the Past 2 Weeks in Indianapolis, Indiana, U.S.A.

Now
22 °F

Light snow. Overcast.


Feels Like: 10 °F
Forecast: 20 / 26 °F
Wind: 13 mph from West

Location: Indianapolis International Airport

Current Time: Feb 8, 2016 at 10:29:52 PM

Latest Report: Feb 8, 2016 at 9:54 PM


Visibility: 9 mi

Pressure: 29.78 "Hg

Humidity: 78%

Dew point: 16 °F

Location of IndianapolisLocation

Historic Weather in Indianapolis — Graph

°F

Indianapolis Temperature Yesterday

Maximum temperature yesterday: 54 °F (at 1:54 PM)
Minimum temperature yesterday: 33 °F (at 12:54 AM)
Average temperature yesterday: 42 °F

High & Low Weather Summary for the Past Weeks

 TemperatureHumidityPressure
High61 °F (Feb 2, 10:54 PM)92% (Feb 1, 3:54 AM)30.40 "Hg (Feb 1, 3:54 AM)
Low20 °F (Feb 5, 6:54 AM)31% (Feb 7, 1:54 PM)29.48 "Hg (Feb 3, 12:54 AM)
Average37 °F69%29.97 "Hg
* Reported Jan 24 8:54 PM — Feb 8 8:54 PM, Indianapolis, Weather by CustomWeather, © 2016

Note: Actual official high and low records may vary slightly from our data, if they occured in-between our weather recording intervals... More about our weather records

Advertising

Indianapolis Weather History for the Previous 24 Hours

 ConditionsComfort  
Time TempWeatherWind HumidityBarometerVisibility
8:54 PM
Mon, Feb 8
22 °FLight snow. Mostly cloudy.13 mph78%29.80 "Hg8 mi
7:54 PM23 °FLight snow. Passing clouds.15 mph74%29.79 "Hg8 mi
6:54 PM25 °FLight snow. Mostly cloudy.18 mph78%29.78 "Hg3 mi
5:54 PM25 °FLight snow. More clouds than sun.17 mph81%29.76 "Hg3 mi
4:54 PM27 °FLight snow. Ice fog.17 mph85%29.74 "Hg1 mi
3:54 PM28 °FLight snow. Overcast.20 mph81%29.71 "Hg4 mi
2:54 PM30 °FLight snow. Overcast.18 mph85%29.68 "Hg9 mi
1:54 PM32 °FLight snow. Ice fog.17 mph85%29.66 "Hg2 mi
12:54 PM38 °FCloudy.7 mph70%29.65 "Hg10 mi
11:54 AM36 °FLight snow. Mostly cloudy.12 mph79%29.67 "Hg8 mi
10:54 AM36 °FLight snow. Mostly cloudy.8 mph79%29.67 "Hg8 mi
9:54 AM35 °FLight snow. Partly sunny.13 mph85%29.67 "Hg10 mi
7:54 AM33 °FMostly cloudy.8 mph92%29.67 "Hg9 mi
6:54 AM33 °FLow clouds.3 mph92%29.68 "Hg9 mi
5:59 AM33 °FLight snow. Fog.3 mph92%29.67 "Hg4 mi
4:54 AM34 °FLight snow. Mostly cloudy.9 mph88%29.69 "Hg8 mi
3:54 AM37 °FLight rain. Mostly cloudy.13 mph79%29.70 "Hg10 mi
2:54 AM37 °FMostly cloudy.9 mph76%29.71 "Hg10 mi
1:54 AM37 °FMostly cloudy.8 mph76%29.71 "Hg10 mi
12:54 AM37 °FOvercast.8 mph76%29.73 "Hg10 mi
11:54 PM
Sun, Feb 7
37 °FPassing clouds.9 mph79%29.77 "Hg10 mi
Weather by CustomWeather, © 2016

See weather overviewHow to use our weather pages